Content
SEND FEEDBACK

Daily
Averages
Monthly
Summary
Canada

QUEBEC CITY, QUEBEC


Home > North America > Canada > Quebec
Elevation: 239 feet     Latitude: 46 48N     Longitude: 071 23W

WEATHER
 
SELECT A DAY
Number of Records: 198,020;   Date Range: 6/30/96 - 12/17/14
 
SHARE

PRINT THIS DATA

[ ← Previous Day ]
WEATHER ALMANAC - APRIL 17, 2013
[ Next Day → ]
[ °C ]   °F
Weather ElementAverageHighLow
Temperature43.4 °F52 °F (2:00 pm)35.6 °F (5:00 am)
Dewpoint23.6 °F33 °F (2:00 am)11 °F (8:00 pm)
Humidity47.7 %81 % (2:00 am)13 % (5:00 pm)
Barometer30.21 in30.40 in (11:00 pm)30.00 in (2:00 am)
Wind Speed12 mph16.1 mph (4:00 am)
Wind Gust24.2 mph (10:00 am)
Weather ElementAverage
Visibility20.9 mi
Wind DirectionWNW (285.5 °)

Weather ElementTotal
Precipitation---
Heating Degree Days21.2 (Base 65)
Averaged from 31 records on April 17, 2013
WEATHER CONDITIONS BREAKOUT
WIND DIRECTION BREAKOUT
WEATHER BY HOUR - APRIL 17, 2013
[ °C ]   °F
Local TimeTemperatureDewpointHumidityBarometerVisibilityWind DirectionWind SpeedGust SpeedPrecipitationEventsConditions
1:00 AM39.2 °F32.0 °F75 %30.01 in15.0 miWSW (240°)9.2 mphClear
2:00 AM39.0 °F33.0 °F72 %30.00 inSW (230°)11.5 mph
2:00 AM37.4 °F32.0 °F81 %30.01 in15.0 miSW (230°)13.8 mphMostly Cloudy
3:00 AM37.4 °F30.2 °F75 %30.03 in15.0 miWSW (240°)15.0 mphMostly Cloudy
4:00 AM37.4 °F30.2 °F75 %30.05 in15.0 miWSW (250°)16.1 mphScattered Clouds
5:00 AM37.0 °F31.0 °F73 %30.06 inSW (230°)12.7 mph
5:00 AM35.6 °F30.2 °F81 %30.08 in15.0 miWest (260°)12.7 mphMostly Cloudy
6:00 AM37.4 °F30.2 °F75 %30.11 in15.0 miWest (260°)13.8 mphMostly Cloudy
7:00 AM37.4 °F32.0 °F81 %30.13 in20.0 miWSW (250°)16.1 mphMostly Cloudy
8:00 AM40.0 °F33.0 °F67 %30.15 inSW (230°)9.2 mph
8:00 AM39.2 °F32.0 °F75 %30.16 in20.0 miWSW (250°)15.0 mphPartly Cloudy
9:00 AM42.8 °F30.2 °F61 %30.19 in20.0 miWNW (300°)13.8 mphPartly Cloudy
10:00 AM42.8 °F28.4 °F57 %30.22 in20.0 miNW (310°)11.5 mph24.2 mphPartly Cloudy
11:00 AM46.0 °F26.0 °F33 %30.21 inNNW (330°)11.5 mph
11:00 AM44.6 °F26.6 °F49 %30.23 in20.0 miNW (310°)12.7 mph21.9 mphPartly Cloudy
12:00 PM46.4 °F24.8 °F43 %30.24 in20.0 miNNW (340°)11.5 mph23.0 mphPartly Cloudy
1:00 PM50.0 °F26.6 °F40 %30.23 in30.0 miNW (310°)16.1 mphPartly Cloudy
2:00 PM52.0 °F29.0 °F28 %30.22 inWNW (300°)11.5 mph
2:00 PM50.0 °F26.6 °F40 %30.25 in30.0 miWNW (300°)15.0 mphPartly Cloudy
3:00 PM51.8 °F17.6 °F26 %30.26 in30.0 miNNW (340°)13.8 mph21.9 mphPartly Cloudy
4:00 PM51.8 °F19.4 °F28 %30.28 in30.0 miWNW (290°)15.0 mph20.7 mphPartly Cloudy
5:00 PM51.0 °F16.0 °F13 %30.29 inNW (310°)11.5 mph
5:00 PM51.8 °F15.8 °F24 %30.31 in30.0 miNW (320°)16.1 mphPartly Cloudy
6:00 PM50.0 °F12.2 °F22 %30.30 in30.0 miNNW (340°)8.1 mphPartly Cloudy
7:00 PM48.2 °F15.8 °F27 %30.33 in30.0 miNW (310°)8.1 mphPartly Cloudy
8:00 PM44.0 °F11.0 °F15 %30.33 inNorth (350°)5.8 mph
8:00 PM46.4 °F12.2 °F25 %30.35 in15.0 miNorth (350°)6.9 mphPartly Cloudy
9:00 PM42.8 °F12.2 °F29 %30.38 in15.0 miNorth (350°)8.1 mphClear
10:00 PM39.2 °F12.2 °F33 %30.39 in15.0 miNorth (360°)10.4 mphClear
11:00 PM38.0 °F12.0 °F21 %30.40 inNorth8.1 mph
11:00 PM37.4 °F12.2 °F36 %30.40 in15.0 miNorth (360°)10.4 mphClear
Hourly data recorded from CYQB, located miles away from Quebec City, Quebec







STORIES FROM OUR PARTNERS